Station SHPF1 - SHP - Shell Point, FL Image indicating link to RSS feed of recent meteorological observations for station SHPF1


Conditions at SHPF1 as of
(10:54 pm EDT on 05/23/2024)
0254 GMT on 05/24/2024:
Note: This report is more than two hours old
     

Click on the graph icon in the table below to see a time series plot of the last five days of that observation.

5-day plot - Wind Direction Wind Direction (WDIR):SSW ( 200 deg true )
5-day plot - Wind Speed Wind Speed (WSPD): 8.9 kts
5-day plot - Wind Gust Wind Gust (GST): 9.9 kts
5-day plot - Wave Height Wave Height (WVHT): 55.8 ft
5-day plot - Atmospheric Pressure Atmospheric Pressure (PRES):29.95 in
5-day plot - Air Temperature Air Temperature (ATMP): 80.1 °F
5-day plot - Dew Point Dew Point (DEWP): 74.1 °F
5-day plot - Tide (above MLLW) Tide (above MLLW) (TIDE): 6.96 ft
5-day plot - Heat Index Heat Index (HEAT): 84.7 °F
5-day plot - Wind Speed at 10 Meters Wind Speed at 10 meters (WSPD10M): 9.7 kts
5-day plot - Wind Speed at 20 Meters Wind Speed at 20 meters (WSPD20M): 9.7 kts
5-day plot -  Wind Speed, Wind Gust and Atmospheric Pressure Combined plot of Wind Speed, Gust, and Air Pressure
Previous observations
TIME
(EDT)
5-day plot - Wind Direction
WDIR
 
5-day plot - Wind Speed
WSPD
kts
5-day plot - Wind Gust
GST
kts
5-day plot - Wave Height
WVHT
ft
5-day plot - Dominant Wave Period
DPD
sec
5-day plot - Average Wave Period
APD
sec
5-day plot - Mean Wave Direction
MWD
 
5-day plot - Atmospheric Pressure
PRES
in
5-day plot - Pressure Tendency
PTDY
in
5-day plot - Air Temperature
ATMP
°F
5-day plot - Water Temperature
WTMP
°F
5-day plot - Dew Point
DEWP
°F
5-day plot - Salinity
SAL
psu
5-day plot - Visibility
VIS
nmi
5-day plot - Tide (above MLLW)
TIDE
ft
2024-05-23 10:48 pmSSW 8.0 8.9 55.8---29.95- 80.2- 74.1-- 6.96
2024-05-23 10:42 pmSSW 8.9 9.9 55.8---29.95- 80.4- 74.1-- 6.96
2024-05-23 10:36 pmSSW 8.0 8.9 55.8---29.94- 80.4- 74.3-- 6.96
2024-05-23 10:30 pmSSW 7.0 8.9 55.8---29.94- 80.4- 74.5-- 6.96
2024-05-23 10:24 pmSSW 7.0 8.0 55.8---29.94- 80.4- 74.5-- 6.96
2024-05-23 10:18 pmSSW 8.0 9.9 55.8---29.94- 80.4- 74.3-- 6.96
2024-05-23 10:12 pm S 8.0 8.9 55.8---29.94- 80.4- 74.7-- 6.96
2024-05-23 10:06 pm S 7.0 8.9 55.8---29.93- 80.2- 74.8-- 6.96
2024-05-23 10:00 pm S 7.0 8.9 55.8---29.93-0.01 80.2- 74.8-- 6.96
2024-05-23 09:54 pm S 7.0 8.9 55.8---29.93- 80.4- 74.8-- 6.96
2024-05-23 09:48 pmSSW 8.0 9.9 55.8---29.93- 80.6- 74.7-- 6.96
2024-05-23 09:42 pmSSW 8.0 9.9 55.8---29.94- 80.4- 74.7-- 6.96
2024-05-23 09:36 pmSSW 8.9 11.1 55.8---29.94- 80.4- 74.5-- 6.96
2024-05-23 09:30 pm SW 9.9 11.1 55.8---29.94- 80.4- 74.5-- 6.96
2024-05-23 09:24 pm SW 8.9 11.1 55.8---29.94- 80.8- 74.8-- 6.96
2024-05-23 09:18 pmSSW 9.9 11.1 55.8---29.93- 80.4- 74.3-- 6.96
2024-05-23 09:12 pmSSW 8.9 11.1 55.8---29.93- 80.4- 74.3-- 6.96
2024-05-23 09:06 pmSSW 8.9 11.1 55.8---29.93- 80.6- 74.3-- 6.96
2024-05-23 09:00 pmSSW 9.9 12.0 55.8---29.93-0.02 81.0- 74.3-- 6.96
2024-05-23 08:54 pmSSW 8.9 11.1 55.8---29.93- 81.0- 73.8-- 6.96
2024-05-23 08:48 pmSSW 8.9 11.1 55.4---29.93- 81.0- 73.8-- 6.92
2024-05-23 08:42 pmSSW 8.9 9.9 55.4---29.93- 81.1- 73.4-- 6.92
2024-05-23 08:36 pmSSW 8.0 9.9 55.4---29.93- 81.5- 73.9-- 6.92
2024-05-23 08:30 pm SW 8.0 8.9 55.4---29.94- 81.5- 73.4-- 6.92
2024-05-23 08:24 pmSSW 8.0 9.9 55.4---29.94- 81.3- 73.4-- 6.92
2024-05-23 08:18 pm S 7.0 8.9 55.4---29.93- 81.7- 74.3-- 6.92
2024-05-23 08:12 pmSSW 7.0 8.9 55.4---29.93- 81.9- 73.8-- 6.92
2024-05-23 08:06 pmSSW 7.0 8.9 55.4---29.94- 81.9- 74.1-- 6.92
2024-05-23 08:00 pm S 7.0 8.9 55.4---29.94-0.03 82.0- 74.7-- 6.92
2024-05-23 07:54 pm S 6.0 8.9 55.4---29.94- 82.0- 74.3-- 6.92
2024-05-23 07:48 pm S 6.0 8.0 55.8---29.94- 82.6- 74.5-- 6.96
2024-05-23 07:42 pm S 6.0 8.9 55.8---29.94- 82.8- 74.5-- 6.96
2024-05-23 07:36 pm S 7.0 9.9 55.8---29.94- 82.8- 74.7-- 6.96
2024-05-23 07:30 pm S 7.0 8.9 55.8---29.94- 82.8- 74.7-- 6.96
2024-05-23 07:24 pm S 7.0 9.9 55.8---29.94- 82.9- 74.5-- 6.96
2024-05-23 07:18 pm S 6.0 8.0 55.8---29.94- 82.9- 75.0-- 6.96
2024-05-23 07:12 pm S 7.0 8.9 55.8---29.94- 82.8- 73.9-- 6.96
2024-05-23 07:06 pm S 7.0 8.9 55.8---29.94- 83.1- 73.6-- 6.96
2024-05-23 07:00 pm S 5.1 8.0 55.8---29.94-0.03 83.3- 73.9-- 6.96
2024-05-23 06:54 pm S 5.1 8.0 55.8---29.95- 83.3- 73.4-- 6.96
2024-05-23 06:48 pm S 5.1 7.0 55.8---29.95- 83.5- 73.4-- 6.96
2024-05-23 06:42 pm S 5.1 7.0 55.8---29.95- 83.7- 73.8-- 6.96
2024-05-23 06:36 pm S 5.1 7.0 55.8---29.94- 83.5- 73.4-- 6.96
2024-05-23 06:30 pm S 6.0 8.0 55.8---29.95- 83.7- 73.6-- 6.96
2024-05-23 06:24 pm S 5.1 7.0 55.8---29.95- 83.5- 74.3-- 6.96
2024-05-23 06:18 pm S 5.1 7.0 55.8---29.95- 83.8- 74.5-- 6.96
2024-05-23 06:12 pm S 6.0 7.0 55.8---29.95- 83.5- 74.1-- 6.96
2024-05-23 06:06 pm S 7.0 8.0 55.8---29.95- 83.8- 74.5-- 6.96
2024-05-23 06:00 pm S 7.0 8.0 55.8---29.95-0.04 83.7- 73.9-- 6.96
2024-05-23 05:54 pm S 6.0 8.0 55.8---29.95- 83.8- 73.8-- 6.96
2024-05-23 05:48 pm S 6.0 8.0 55.8---29.95- 83.8- 73.2-- 6.96
2024-05-23 05:42 pm S 6.0 8.0 55.8---29.95- 84.2- 73.8-- 6.96
2024-05-23 05:36 pm S 7.0 8.9 55.8---29.96- 83.8- 73.0-- 6.96
2024-05-23 05:30 pm S 6.0 8.0 55.8---29.96- 84.2- 73.9-- 6.96
2024-05-23 05:24 pmSSE 6.0 8.0 55.8---29.96- 83.7- 73.8-- 6.96
2024-05-23 05:18 pm S 7.0 8.9 55.8---29.97- 83.8- 73.9-- 6.96
2024-05-23 05:12 pm S 6.0 9.9 55.8---29.97- 83.8- 74.3-- 6.96
2024-05-23 05:06 pm S 7.0 8.9 55.8---29.97- 83.8- 74.1-- 6.96
2024-05-23 05:00 pm S 6.0 8.0 55.8---29.97-0.01 84.0- 74.3-- 6.96
2024-05-23 04:54 pm S 7.0 8.9 55.8---29.97- 83.8- 74.1-- 6.96
2024-05-23 04:48 pmSSE 6.0 8.0 55.8---29.97- 84.2- 73.8-- 6.96
2024-05-23 04:42 pmSSE 5.1 8.0 55.8---29.97- 84.0- 73.6-- 6.96
2024-05-23 04:36 pmSSE 5.1 8.0 55.8---29.97- 84.2- 73.6-- 6.96
2024-05-23 04:30 pm SE 4.1 7.0 55.8---29.97- 84.6- 73.9-- 6.96
2024-05-23 04:24 pmSSE 4.1 7.0 55.8---29.97- 84.6- 73.8-- 6.96
2024-05-23 04:18 pm S 4.1 5.1 55.8---29.97- 83.8- 73.2-- 6.96
2024-05-23 04:12 pm S 4.1 7.0 55.8---29.97- 83.7- 73.4-- 6.96
2024-05-23 04:06 pmSSE 4.1 7.0 55.8---29.97- 84.2- 73.8-- 6.96
2024-05-23 04:00 pm SE 5.1 6.0 55.8---29.97-0.01 84.7- 73.9-- 6.96
2024-05-23 03:54 pmSSE 4.1 6.0 55.8---29.98- 84.6- 73.9-- 6.96
2024-05-23 03:48 pm S 4.1 5.1 55.8---29.98- 84.0- 73.9-- 6.96
2024-05-23 03:42 pm S 4.1 7.0 55.8---29.98- 84.0- 74.1-- 6.96
2024-05-23 03:36 pm S 4.1 7.0 55.8---29.98- 83.8- 73.9-- 6.96
2024-05-23 03:30 pm S 4.1 6.0 55.8---29.98- 83.8- 73.6-- 6.96
2024-05-23 03:24 pm S 5.1 7.0 55.8---29.98- 84.0- 73.6-- 6.96
2024-05-23 03:18 pm S 4.1 6.0 55.8---29.98- 83.7- 73.8-- 6.96
2024-05-23 03:12 pm S 5.1 7.0 55.8---29.98- 84.0- 73.9-- 6.96
2024-05-23 03:06 pm S 4.1 7.0 55.8---29.98- 83.5- 73.4-- 6.96
2024-05-23 03:00 pmSSE 5.1 7.0 55.8---29.98-0.01 83.8- 73.9-- 6.96
2024-05-23 02:54 pm S 4.1 7.0 55.8---29.98- 83.8- 74.1-- 6.96
2024-05-23 02:48 pm S 5.1 7.0 55.8---29.99- 83.7- 73.9-- 6.96
2024-05-23 02:42 pm S 6.0 8.0 55.8---29.99- 83.1- 73.8-- 6.96
2024-05-23 02:36 pm S 6.0 8.9 55.8---29.99- 83.5- 73.9-- 6.96
2024-05-23 02:30 pmSSE 7.0 8.9 55.8---29.99- 82.9- 74.3-- 6.96
2024-05-23 02:24 pm S 6.0 7.0 55.8---29.98- 83.1- 74.3-- 6.96
2024-05-23 02:18 pmSSE 7.0 8.9 55.8---29.98- 83.1- 74.1-- 6.96
2024-05-23 02:12 pmSSE 8.0 9.9 55.8---29.98- 82.9- 73.9-- 6.96
2024-05-23 02:06 pmSSE 7.0 9.9 55.8---29.98- 82.9- 73.9-- 6.96
2024-05-23 02:00 pmSSE 7.0 9.9 55.8---29.98- 82.9- 73.8-- 6.96
2024-05-23 01:54 pm S 8.0 8.9 55.8---29.98- 83.3- 74.8-- 6.96
2024-05-23 01:48 pm S 7.0 8.9 55.8---29.98- 82.4- 73.8-- 6.96
2024-05-23 01:42 pmSSE 6.0 8.9 55.8---29.99- 82.6- 73.9-- 6.96
2024-05-23 01:36 pmSSE 8.0 8.9 55.8---29.99- 82.4- 73.6-- 6.96
2024-05-23 01:30 pmSSE 7.0 8.9 55.8---29.98- 82.9- 74.3-- 6.96
2024-05-23 01:24 pmSSE 8.0 9.9 55.8---29.98- 82.8- 73.6-- 6.96
2024-05-23 01:18 pmSSE 6.0 8.9 55.8---29.99- 83.1- 73.9-- 6.96
2024-05-23 01:12 pm S 6.0 8.9 55.8---29.99- 82.8- 74.1-- 6.96
2024-05-23 01:06 pmSSE 7.0 9.9 55.8---29.98- 82.6- 73.9-- 6.96
2024-05-23 01:00 pmSSE 7.0 8.9 55.8---29.99-0.01 82.4- 73.6-- 6.96
2024-05-23 12:54 pm S 7.0 8.9 55.8---29.99- 82.4- 73.4-- 6.96
2024-05-23 12:48 pm S 8.0 8.9 55.8---29.99- 82.6- 73.2-- 6.96
2024-05-23 12:42 pm S 8.0 9.9 55.8---29.99- 82.8- 73.9-- 6.96
2024-05-23 12:36 pmSSE 8.0 9.9 55.8---29.99- 82.6- 73.8-- 6.96
2024-05-23 12:30 pm S 8.0 11.1 55.8---29.99- 82.0- 73.4-- 6.96
2024-05-23 12:24 pm S 8.0 11.1 55.8---29.99- 81.9- 73.0-- 6.96
2024-05-23 12:18 pmSSE 8.9 11.1 55.8---29.99- 82.2- 73.4-- 6.96
2024-05-23 12:12 pm S 8.0 12.0 55.8---30.00- 82.4- 73.4-- 6.96
2024-05-23 12:06 pm S 8.0 11.1 55.8---30.00- 82.4- 73.2-- 6.96
2024-05-23 12:00 pmSSE 8.9 12.0 55.8---30.00+0.00 82.0- 73.2-- 6.96
2024-05-23 11:54 amSSE 8.0 11.1 55.8---30.00- 82.4- 73.2-- 6.96
2024-05-23 11:48 am S 7.0 9.9 55.8---30.00- 82.2- 73.0-- 6.96
2024-05-23 11:42 am--- 55.8---29.99- 82.2- 72.9-- 6.96
2024-05-23 10:54 amSSE 13.0 14.0 55.8---29.98- 82.0- 72.1-- 6.96
2024-05-23 10:48 amSSE 13.0 15.0 55.8---29.98- 81.9- 72.0-- 6.96
2024-05-23 10:42 amSSE 13.0 15.9 55.8---29.98- 81.9- 72.0-- 6.96
2024-05-23 10:36 amSSE 14.0 15.9 55.8---29.98- 81.9- 72.0-- 6.96
2024-05-23 10:30 amSSE 14.0 15.9 55.8---29.98- 81.5- 72.0-- 6.96
2024-05-23 10:24 amSSE 14.0 17.1 55.8---29.98- 81.0- 71.4-- 6.96
2024-05-23 10:18 amSSE 14.0 17.1 55.8---29.98- 81.5- 71.4-- 6.96
2024-05-23 10:12 amSSE 13.0 15.0 55.8---29.98- 81.7- 71.8-- 6.96
2024-05-23 10:06 amSSE 13.0 15.0 55.8---29.99- 81.7- 71.8-- 6.96
2024-05-23 10:00 amSSE 11.1 14.0 55.8---29.99+0.00 81.5- 72.0-- 6.96
2024-05-23 09:54 amSSE 13.0 15.0 55.8---30.00- 81.5- 71.2-- 6.96
2024-05-23 09:48 amSSE 11.1 13.0 55.8---30.00- 81.7- 72.1-- 6.96
2024-05-23 09:42 amSSE 9.9 14.0 55.8---30.00- 81.7- 72.5-- 6.96
2024-05-23 09:36 amSSE 11.1 14.0 55.8---30.00- 81.3- 72.3-- 6.96
2024-05-23 09:30 amSSE 12.0 14.0 55.8---30.00- 81.1- 72.1-- 6.96
2024-05-23 09:24 am S 12.0 15.0 55.8---30.00- 81.0- 72.1-- 6.96
2024-05-23 09:18 am S 11.1 15.0 55.8---30.01- 81.0- 72.3-- 6.96
2024-05-23 09:12 amSSE 12.0 14.0 55.8---30.00- 80.8- 72.1-- 6.96
2024-05-23 09:06 amSSE 12.0 15.0 55.8---30.00- 80.8- 71.6-- 6.96
2024-05-23 09:00 amSSE 11.1 14.0 55.8---30.00+0.03 80.8- 71.8-- 6.96
2024-05-23 08:54 am S 9.9 13.0 55.8---30.00- 80.8- 72.0-- 6.96
2024-05-23 08:48 amSSE 9.9 14.0 55.8---30.01- 80.4- 71.6-- 6.96
2024-05-23 08:42 am S 9.9 13.0 55.8---30.01- 80.4- 71.6-- 6.96
2024-05-23 08:36 am S 9.9 14.0 55.8---30.01- 80.2- 71.2-- 6.96
2024-05-23 08:30 am S 9.9 13.0 55.8---30.01- 80.4- 71.8-- 6.96
2024-05-23 08:24 am S 9.9 11.1 55.8---30.01- 80.4- 70.9-- 6.96
2024-05-23 08:18 am S 8.9 13.0 55.8---30.01- 80.4- 70.9-- 6.96
2024-05-23 08:12 am S 11.1 13.0 55.8---30.01- 80.4- 70.5-- 6.96
2024-05-23 08:06 am S 12.0 14.0 55.8---30.01- 80.6- 71.1-- 6.96
2024-05-23 08:00 am S 11.1 13.0 55.8---30.01+0.04 80.4- 71.1-- 6.96
2024-05-23 07:54 am S 11.1 14.0 55.8---30.01- 80.4- 70.7-- 6.96
2024-05-23 07:48 am S 9.9 13.0 55.8---30.01- 80.4- 70.7-- 6.96
2024-05-23 07:42 am S 9.9 13.0 55.8---30.01- 80.8- 70.5-- 6.96
2024-05-23 07:36 amSSE 9.9 14.0 55.8---30.00- 80.6- 70.0-- 6.96
2024-05-23 07:30 am S 11.1 14.0 55.8---30.00- 80.6- 70.0-- 6.96
2024-05-23 07:24 am S 11.1 14.0 55.8---30.00- 80.6- 69.8-- 6.96
2024-05-23 07:18 am S 8.9 12.0 55.8---30.00- 80.8- 70.5-- 6.96
2024-05-23 07:12 am S 9.9 11.1 55.8---30.00- 80.6- 70.3-- 6.96
2024-05-23 07:06 am S 9.9 13.0 55.8---30.00- 80.6- 70.3-- 6.96
2024-05-23 07:00 am S 9.9 13.0 55.8---30.00+0.02 80.6- 69.8-- 6.96
2024-05-23 06:54 am S 11.1 14.0 55.8---30.00- 80.8- 70.2-- 6.96
2024-05-23 06:48 am S 11.1 14.0 55.8---29.99- 80.6- 70.3-- 6.96
2024-05-23 06:42 am S 11.1 13.0 55.8---29.98- 80.6- 70.7-- 6.96
2024-05-23 06:36 am S 11.1 14.0 55.8---29.98- 80.6- 70.9-- 6.96
2024-05-23 06:30 am S 11.1 14.0 55.8---29.98- 80.6- 71.1-- 6.96
2024-05-23 06:24 amSSE 12.0 15.0 55.8---29.97- 80.8- 71.6-- 6.96
2024-05-23 06:18 am S 12.0 15.9 55.8---29.98- 80.4- 71.1-- 6.96
2024-05-23 06:12 am S 13.0 15.0 55.8---29.98- 80.6- 71.2-- 6.96
2024-05-23 06:06 amSSE 12.0 15.0 55.8---29.97- 80.6- 71.1-- 6.96
2024-05-23 06:00 amSSE 12.0 15.0 55.8---29.97+0.00 81.0- 71.1-- 6.96
2024-05-23 05:54 amSSE 15.0 18.1 55.8---29.97- 80.6- 71.6-- 6.96
2024-05-23 05:48 amSSE 14.0 15.9 55.8---29.97- 80.6- 72.7-- 6.96
2024-05-23 05:42 amSSE 15.0 17.1 55.8---29.97- 80.6- 72.5-- 6.96
2024-05-23 05:36 amSSE 14.0 15.9 55.8---29.97- 81.0- 73.0-- 6.96
2024-05-23 05:30 amSSE 15.0 17.1 55.8---29.96- 80.8- 72.3-- 6.96
2024-05-23 05:24 amSSE 14.0 15.9 55.8---29.96- 80.8- 72.5-- 6.96
2024-05-23 05:18 am SE 14.0 15.9 55.8---29.96- 80.6- 72.5-- 6.96
2024-05-23 05:12 am SE 14.0 15.9 55.8---29.96- 80.6- 73.4-- 6.96
2024-05-23 05:06 am SE 14.0 17.1 55.8---29.96- 80.2- 73.6-- 6.96
2024-05-23 05:00 am SE 12.0 13.0 55.8---29.96-0.02 80.1- 73.8-- 6.96
2024-05-23 04:54 am SE 9.9 13.0 55.8---29.96- 80.1- 73.8-- 6.96
2024-05-23 04:48 amESE 7.0 11.1 55.8---29.97- 79.9- 73.2-- 6.96
2024-05-23 04:42 amESE 7.0 9.9 55.8---29.96- 79.7- 72.5-- 6.96
2024-05-23 04:36 amESE 5.1 9.9 55.8---29.96- 79.7- 71.2-- 6.96
2024-05-23 04:30 amESE 6.0 8.9 55.8---29.96- 79.9- 69.8-- 6.96
2024-05-23 04:24 amESE 5.1 8.9 55.8---29.96- 79.5- 69.1-- 6.96
2024-05-23 04:18 amESE 5.1 8.0 55.8---29.96- 79.3- 68.9-- 6.96
2024-05-23 04:12 amESE 6.0 9.9 55.8---29.97- 78.4- 69.3-- 6.96
2024-05-23 04:06 am E 5.1 8.0 55.8---29.97- 77.2- 70.3-- 6.96
2024-05-23 04:00 am E 1.9 6.0 55.8---29.98-0.01 76.3- 70.2-- 6.96
2024-05-23 03:54 am E 4.1 7.0 55.8---29.98- 75.6- 70.3-- 6.96
2024-05-23 03:48 am E 1.9 5.1 55.8---29.98- 74.5- 68.9-- 6.96
2024-05-23 03:42 am NE 1.0 2.9 55.8---29.98- 74.5- 68.0-- 6.96
2024-05-23 03:36 amNNE 1.0 1.9 55.8---29.97- 74.5- 68.2-- 6.96
2024-05-23 03:30 am NE 1.9 2.9 55.8---29.97- 74.7- 68.0-- 6.96
2024-05-23 03:24 am NE 1.9 2.9 55.8---29.97- 74.1- 67.3-- 6.96
2024-05-23 03:18 am NE 1.0 2.9 55.8---29.97- 73.9- 66.9-- 6.96
2024-05-23 03:12 am NE 1.9 2.9 55.8---29.97- 74.3- 66.7-- 6.96
2024-05-23 03:06 amNNE 1.9 2.9 55.8---29.97- 74.7- 66.7-- 6.96
2024-05-23 03:00 amNNE 2.9 4.1 55.8---29.97- 74.5- 66.6-- 6.96
2024-05-23 02:54 am N 2.9 4.1 55.8---29.97- 74.5- 66.6-- 6.96